[[{"header":{"parameterUnit":"m.s-1","parameterCategory":2,"la1":30.2991,"la2":30.254,"lo1":-89.0895,"lo2":-89.0444,"dy":0.0017,"dx":0.0017,"nx":28,"ny":28,"refTime":"2025-01-28T03:00:00:Z","depth":"0","parameterNumber":2,"parameterNumberName":"U-component_of_CURRENTS"},"data":[0,0,0,0,0,0,0,0,0,0,0,0,0,0,0,0,0,0,0,0,0,0,0,0,0,0,0,0,0,0,0,0,0,0,0,0,0,0,0,0,0,0,0,0,0,0,0,0,0,0,0,0,0,0,0,0,0,0,0.1833,0.1833,0,0.1813,0.1812,0.1812,0.1794,0.1794,0.1794,0.1794,0.1782,0.1782,0.1781,0,0,0,0,0,0,0,0,0,0,0,0,0,0.1909,0.1907,0.1833,0.1833,0.1833,0.1813,0.1812,0.1812,0.1794,0.1794,0.1794,0.1793,0.1782,0.1782,0.1781,0,0,0,0,0,0,0,0,0,0,0,0,0,0.1881,0.1907,0.1833,0.1821,0.182,0.1813,0.1812,0.1812,0.1794,0.1794,0.1794,0.1793,0.1782,0.1782,0.1781,0.1786,0,0,0.1781,0.1781,0,0,0,0,0,0,0,0,0.1882,0.1878,0.1823,0.1822,0.1821,0.1806,0.1835,0.1804,0.1794,0.1804,0.1794,0.1793,0.1791,0.179,0.1786,0.1785,0.1785,0.1781,0.1781,0.178,0.178,0,0,0,0,0,0,0,0.1884,0.1879,0.1825,0.1823,0.1822,0.1835,0.183,0.1829,0.1799,0.1803,0.1802,0.18,0.179,0.1787,0.1786,0.1785,0.1781,0.1781,0.178,0.178,0.1824,0.1826,0,0,0,0,0,0,0.1884,0.188,0.1825,0.1824,0.1852,0.1834,0.1828,0.1811,0.1799,0.1797,0.18,0.1799,0.1787,0.1786,0.1785,0.1823,0.178,0.178,0.178,0.1823,0.1825,0.1826,0,0,0,0,0,0,0.1886,0.1879,0.1826,0.1853,0.1847,0.1832,0.1813,0.1811,0.1809,0.1797,0.1795,0.1802,0.1787,0.1786,0.1796,0.1821,0.178,0.178,0.1822,0.1824,0.1825,0.1876,0,0,0,0,0,0,0.1888,0.1879,0.187,0.1852,0.1846,0.1829,0.1813,0.181,0.1808,0.1807,0.1798,0.1796,0.1786,0.1796,0.1796,0.182,0.178,0.182,0.1822,0.1825,0.1873,0.1879,0.1885,0,0,0,0,0,0.189,0.1877,0.1869,0.1863,0.1832,0.183,0.1828,0.1817,0.1809,0.1814,0.1811,0.1796,0.1812,0.1797,0.1796,0.182,0.1819,0.1822,0.1825,0.187,0.1878,0.1885,0,0,0,0,0,0,0.1904,0.1873,0.1865,0.1842,0.1841,0.1827,0.1828,0.1821,0.1821,0.1821,0.1808,0.1807,0.1829,0.1817,0.1802,0.1842,0.1815,0.1818,0.185,0.1857,0.1863,0.1864,0.178,0,0,0,0,0,0.1903,0.1884,0.1868,0.1853,0.1852,0.1842,0.184,0.1835,0.1831,0.183,0.1825,0.1826,0.184,0.1842,0.1848,0.1863,0.187,0.1881,0.1887,0.1892,0.1893,0.1934,0.1944,0.1836,0.1836,0.1836,0,0,0.1903,0.1886,0.1874,0.1856,0.1851,0.1857,0.184,0.184,0.1851,0.183,0.1843,0.1847,0.185,0.1874,0.1882,0.1866,0.1928,0.1896,0.19,0.1898,0.1938,0.1949,0.1958,0.1838,0.1837,0.1837,0,0,0.1905,0.1882,0.1873,0.1875,0.1871,0.1869,0.1872,0.1865,0.1869,0.1881,0.1879,0.1899,0.1903,0.1918,0.1925,0.1969,0.1963,0.1972,0.2,0.204,0.2049,0.2057,0.2086,0.2096,0.1971,0.1971,0.1971,0,0.191,0.1891,0.1875,0.1878,0.1883,0.1878,0.1887,0.1893,0.1893,0.1906,0.1892,0.1931,0.1928,0.1975,0.1987,0.1984,0.2,0.197,0.2048,0.2056,0.2063,0.2091,0.2102,0.1974,0.1974,0.1974,0.1973,0,0.1908,0.1902,0.1902,0.19,0.1908,0.1914,0.1923,0.1938,0.194,0.1947,0.1989,0.1995,0.2017,0.2026,0.2015,0.2073,0.2066,0.2054,0.2028,0.2077,0.2103,0.2114,0.1978,0.1977,0.1976,0.1976,0,0,0.1894,0.1898,0.1898,0.1906,0.192,0.1925,0.1956,0.1982,0.2007,0.202,0.206,0.2085,0.2089,0.2098,0.2101,0.2129,0.2192,0.211,0.2111,0.2137,0.2278,0.2185,0.2187,0.2196,0.2197,0.2199,0.2277,0,0.19,0.1907,0.1911,0.1932,0.194,0.1959,0.1989,0.2017,0.2039,0.2077,0.2105,0.214,0.2118,0.2136,0.2164,0.2185,0.222,0.2171,0.2227,0.2228,0.2138,0.2196,0.203,0.2077,0.2287,0.2288,0.2289,0,0.1895,0.1902,0.1917,0.1949,0.1956,0.1974,0.2024,0.205,0.2109,0.213,0.2176,0.2195,0.2247,0.2219,0.2287,0.2257,0.2272,0.2284,0.2287,0.2187,0.2154,0.2061,0.2088,0.2008,0.2305,0.2304,0.2303,0,0.1885,0.1908,0.1919,0.1928,0.1964,0.1985,0.201,0.2064,0.2097,0.2168,0.2199,0.2263,0.2291,0.2333,0.2344,0.2327,0.2412,0.2395,0.2332,0.2326,0.2187,0.2164,0.2137,0.2454,0.2454,0.2454,0.2454,0,0.1882,0.1891,0.1915,0.192,0.1948,0.1979,0.2018,0.2059,0.2127,0.2161,0.2221,0.2257,0.2319,0.2366,0.2381,0.238,0.2446,0.2347,0.2344,0.2199,0.2178,0.2101,0.2084,0.2457,0.2456,0.2455,0.2455,0,0.1863,0.1876,0.1891,0.1927,0.1939,0.1957,0.2011,0.2042,0.2109,0.2161,0.2188,0.2271,0.2309,0.2364,0.2428,0.2407,0.2346,0.2419,0.2236,0.2208,0.204,0.2032,0.1972,0.1918,0.2363,0.2361,0.2359,0,0.185,0.1855,0.1884,0.1889,0.1902,0.1932,0.1953,0.2024,0.2056,0.2149,0.2171,0.224,0.2246,0.231,0.2296,0.2318,0.2275,0.2186,0.2115,0.2012,0.2003,0.1964,0.1921,0.1965,0.196,0.1956,0.1953,0,0.183,0.1839,0.185,0.186,0.1875,0.1887,0.1922,0.1947,0.2019,0.2053,0.2086,0.2103,0.214,0.2071,0.21,0.209,0.2038,0.2106,0.2055,0.1731,0.1634,0.1584,0.1938,0.192,0.1923,0.1925,0.1927,0.1929,0.1811,0.1808,0.1817,0.182,0.1831,0.1821,0.1801,0.1833,0.1847,0.1853,0.1937,0.1894,0.1874,0.1863,0.186,0.172,0.1796,0.1636,0.1653,0.1637,0.1516,0.1785,0.1722,0.1724,0.1726,0.1728,0.1729,0,0.1771,0.1768,0.1774,0.1755,0.1726,0.1755,0.1757,0.171,0.1662,0.1684,0.1668,0.1583,0.1487,0.148,0.1363,0.1284,0.1249,0.124,0.1147,0.1144,0.1419,0.1328,0.1108,0.1108,0.1108,0.1108,0.1109,0.1109,0.1748,0.1723,0.1717,0.1644,0.1626,0.1548,0.1521,0.1464,0.1448,0.1344,0.1275,0.1269,0.1249,0.1122,0.0981,0.0952,0.0903,0.0819,0.0905,0.1081,0.1119,0.1156,0.1065,0.0794,0.0794,0.0533,0.0531,0.053]},{"header":{"parameterUnit":"m.s-1","parameterCategory":2,"la1":30.2991,"la2":30.254,"lo1":-89.0895,"lo2":-89.0444,"dy":0.0017,"dx":0.0017,"nx":28,"ny":28,"refTime":"2025-01-28T03:00:00:Z","depth":"0","parameterNumber":3,"parameterNumberName":"V-component_of_CURRENTS"},"data":[0,0,0,0,0,0,0,0,0,0,0,0,0,0,0,0,0,0,0,0,0,0,0,0,0,0,0,0,0,0,0,0,0,0,0,0,0,0,0,0,0,0,0,0,0,0,0,0,0,0,0,0,0,0,0,0,0,0,-0.0306,-0.0305,0,-0.0298,-0.0298,-0.0298,-0.0305,-0.0305,-0.0305,-0.0305,-0.0319,-0.0319,-0.0319,0,0,0,0,0,0,0,0,0,0,0,0,0,-0.0342,-0.0341,-0.0306,-0.0305,-0.0305,-0.0298,-0.0298,-0.0298,-0.0305,-0.0305,-0.0305,-0.0305,-0.0319,-0.0319,-0.0319,0,0,0,0,0,0,0,0,0,0,0,0,0,-0.0331,-0.0341,-0.0306,-0.0306,-0.0306,-0.0298,-0.0298,-0.0298,-0.0305,-0.0305,-0.0305,-0.0305,-0.0319,-0.0319,-0.0319,-0.0319,0,0,-0.0321,-0.0321,0,0,0,0,0,0,0,0,-0.0332,-0.033,-0.0306,-0.0306,-0.0306,-0.0301,-0.0316,-0.0305,-0.0305,-0.0307,-0.0305,-0.0305,-0.0313,-0.0314,-0.0315,-0.032,-0.032,-0.0321,-0.0321,-0.0321,-0.0321,0,0,0,0,0,0,0,-0.0333,-0.0331,-0.0305,-0.0306,-0.0306,-0.0312,-0.0311,-0.0314,-0.0312,-0.0307,-0.0307,-0.0303,-0.0314,-0.0314,-0.0315,-0.032,-0.0321,-0.0321,-0.0321,-0.0321,-0.0327,-0.0327,0,0,0,0,0,0,-0.0328,-0.0331,-0.0305,-0.0304,-0.0317,-0.0311,-0.031,-0.0304,-0.0311,-0.0311,-0.0303,-0.0303,-0.0314,-0.0315,-0.0316,-0.0311,-0.0321,-0.0322,-0.0322,-0.0327,-0.0327,-0.0327,0,0,0,0,0,0,-0.0329,-0.0326,-0.0305,-0.0316,-0.0314,-0.031,-0.0303,-0.0303,-0.0303,-0.0307,-0.0309,-0.0302,-0.0314,-0.0315,-0.0316,-0.0311,-0.0322,-0.0322,-0.0327,-0.0327,-0.0327,-0.0303,0,0,0,0,0,0,-0.033,-0.0326,-0.0323,-0.0316,-0.0313,-0.0296,-0.0303,-0.0303,-0.0299,-0.03,-0.0307,-0.0308,-0.0314,-0.0316,-0.0317,-0.0312,-0.0322,-0.0327,-0.0327,-0.0327,-0.0304,-0.0302,-0.0301,0,0,0,0,0,-0.0332,-0.0321,-0.0323,-0.0319,-0.0307,-0.0295,-0.0295,-0.0294,-0.0299,-0.0295,-0.0302,-0.0308,-0.0315,-0.0316,-0.0317,-0.0312,-0.0327,-0.0327,-0.0327,-0.0305,-0.0303,-0.0301,0,0,0,0,0,0,-0.0334,-0.0321,-0.0322,-0.0308,-0.0302,-0.0296,-0.029,-0.0292,-0.0294,-0.0295,-0.0305,-0.0307,-0.0309,-0.0313,-0.0314,-0.0314,-0.0323,-0.0323,-0.0306,-0.0304,-0.0302,-0.0288,-0.0323,0,0,0,0,0,-0.0333,-0.0323,-0.0313,-0.0303,-0.0297,-0.0295,-0.0291,-0.029,-0.0289,-0.029,-0.0295,-0.0302,-0.0309,-0.0308,-0.0316,-0.0312,-0.0306,-0.031,-0.0309,-0.0307,-0.0297,-0.0291,-0.0288,-0.0326,-0.0326,-0.0326,0,0,-0.0331,-0.0322,-0.0317,-0.0303,-0.0297,-0.0284,-0.0293,-0.0282,-0.0274,-0.0291,-0.0284,-0.0298,-0.0308,-0.0307,-0.0308,-0.0309,-0.0292,-0.0307,-0.0305,-0.0296,-0.029,-0.0287,-0.0283,-0.0326,-0.0326,-0.0326,0,0,-0.0316,-0.0313,-0.0297,-0.0289,-0.0277,-0.0276,-0.0272,-0.0265,-0.0264,-0.0261,-0.0274,-0.028,-0.0288,-0.0291,-0.0295,-0.0287,-0.0288,-0.0294,-0.0268,-0.0262,-0.0259,-0.0256,-0.0235,-0.023,-0.0288,-0.0288,-0.0288,0,-0.0314,-0.0292,-0.0291,-0.0272,-0.0263,-0.027,-0.0251,-0.0251,-0.0248,-0.024,-0.0255,-0.0263,-0.0278,-0.027,-0.0273,-0.0282,-0.0275,-0.0275,-0.0259,-0.0256,-0.0253,-0.0233,-0.0228,-0.0287,-0.0287,-0.0287,-0.0287,0,-0.0282,-0.0268,-0.0257,-0.0237,-0.023,-0.0215,-0.0212,-0.0208,-0.0213,-0.021,-0.0206,-0.0228,-0.0229,-0.0241,-0.0257,-0.0244,-0.0243,-0.0261,-0.0262,-0.0248,-0.0227,-0.0223,-0.0285,-0.0286,-0.0286,-0.0286,0,0,-0.0265,-0.0239,-0.0235,-0.0218,-0.0209,-0.0195,-0.0185,-0.0168,-0.0149,-0.0162,-0.0134,-0.0166,-0.0177,-0.0183,-0.0204,-0.0203,-0.0185,-0.0223,-0.0223,-0.0197,-0.0158,-0.0149,-0.0143,-0.0202,-0.0201,-0.02,-0.0149,0,-0.0238,-0.0197,-0.0195,-0.0161,-0.0139,-0.0145,-0.013,-0.012,-0.0117,-0.0093,-0.0112,-0.0102,-0.0155,-0.0153,-0.0164,-0.0178,-0.0173,-0.0197,-0.018,-0.0179,-0.0169,-0.0138,-0.0125,-0.0078,-0.0144,-0.0143,-0.0143,0,-0.0203,-0.0181,-0.0142,-0.0113,-0.0103,-0.009,-0.0061,-0.0046,-0.0025,-0.0022,-0.0021,-0.0033,-0.0035,-0.0082,-0.0097,-0.011,-0.0132,-0.0146,-0.0144,-0.0139,-0.0161,-0.0105,-0.0067,-0.0114,-0.0135,-0.0136,-0.0137,0,-0.0178,-0.0142,-0.011,-0.01,-0.0072,-0.0057,-0.0041,-0.0021,0.0014,0.0033,0.0066,0.0042,0.0054,0.0013,-0.0031,-0.0061,-0.0032,-0.0078,-0.0085,-0.0084,-0.0071,-0.007,-0.0071,-0.008,-0.008,-0.0081,-0.0081,0,-0.0146,-0.0118,-0.0095,-0.0075,-0.0027,-0.0023,0.0028,0.0041,0.0083,0.0148,0.0109,0.0159,0.0077,0.008,0.0016,-0.0006,0.0003,-0.0064,-0.0067,-0.0062,-0.0061,-0.0101,-0.0137,-0.0079,-0.0079,-0.0079,-0.008,0,-0.0116,-0.0105,-0.006,-0.0027,-0.0012,0.0025,0.0086,0.0132,0.0154,0.0241,0.0257,0.0265,0.0263,0.0195,0.015,0.0074,0.0019,0.0028,0.0048,0.0045,-0.003,-0.0065,-0.005,-0.0078,0.0024,0.0025,0.0025,0,-0.0094,-0.0069,-0.0018,0.0019,0.0037,0.0089,0.0136,0.0168,0.023,0.0318,0.038,0.0399,0.0432,0.0372,0.025,0.0163,0.0084,0.0099,0.003,-0.0014,-0.0055,-0.008,-0.0107,0.0062,0.0063,0.0063,0.0064,0,-0.0046,-0.0031,0.0008,0.0079,0.0132,0.0197,0.0268,0.0329,0.0389,0.0466,0.0572,0.0606,0.055,0.0473,0.0337,0.0256,0.0068,0.0108,0.0057,-0.0023,-0.0042,-0.0077,0.0015,0.0069,0.0069,0.0068,0.0068,0.0068,-0.0005,0.0032,0.0083,0.0153,0.0218,0.0304,0.0366,0.0454,0.0564,0.0683,0.071,0.0766,0.0635,0.0458,0.0352,0.0145,0.0128,0.0062,0.0028,0.0011,-0.003,0.0082,0.0129,0.0129,0.0129,0.0129,0.0129,0,0.0053,0.0092,0.0158,0.0238,0.0316,0.0337,0.0458,0.0527,0.0661,0.0762,0.0846,0.0807,0.0668,0.0475,0.0217,0.0084,0.0011,0.0007,-0.0034,-0.0059,0.0043,0.0029,0.0064,0.0064,0.0064,0.0064,0.0064,0.0064,0.0088,0.0154,0.0182,0.0307,0.0366,0.0468,0.0537,0.0646,0.0734,0.0846,0.087,0.0876,0.073,0.0347,0.0078,0.0005,-0.0103,-0.0105,-0.0162,-0.0108,-0.0106,-0.0104,-0.0127,-0.0125,-0.0125,-0.0252,-0.0253,-0.0254]}],[{"header":{"parameterUnit":"m.s-1","parameterCategory":2,"la1":30.2991,"la2":30.254,"lo1":-89.0895,"lo2":-89.0444,"dy":0.0017,"dx":0.0017,"nx":28,"ny":28,"refTime":"2025-01-28T03:00:00:Z","depth":"2","parameterNumber":2,"parameterNumberName":"U-component_of_CURRENTS"},"data":[0,0,0,0,0,0,0,0,0,0,0,0,0,0,0,0,0,0,0,0,0,0,0,0,0,0,0,0,0,0,0,0,0,0,0,0,0,0,0,0,0,0,0,0,0,0,0,0,0,0,0,0,0,0,0,0,0,0,0.1482,0.1482,0,0.1476,0.1476,0.1476,0.1477,0.1477,0.1477,0.1477,0.1484,0.1484,0.1484,0,0,0,0,0,0,0,0,0,0,0,0,0,0.151,0.1509,0.1482,0.1482,0.1482,0.1476,0.1476,0.1476,0.1477,0.1477,0.1477,0.1477,0.1484,0.1484,0.1484,0,0,0,0,0,0,0,0,0,0,0,0,0,0.1499,0.1509,0.1482,0.1482,0.1482,0.1476,0.1476,0.1476,0.1477,0.1477,0.1477,0.1477,0.1484,0.1484,0.1484,0.148,0,0,0.1485,0.1485,0,0,0,0,0,0,0,0,0.15,0.1498,0.1482,0.1482,0.1482,0.1478,0.1488,0.1478,0.1477,0.1478,0.1477,0.1477,0.1484,0.1484,0.1481,0.1481,0.1481,0.1485,0.1485,0.1485,0.1485,0,0,0,0,0,0,0,0.1501,0.1499,0.1479,0.1482,0.1482,0.1488,0.1486,0.1486,0.148,0.1478,0.1478,0.1478,0.1484,0.1481,0.1481,0.1481,0.1485,0.1485,0.1485,0.1485,0.1532,0.1533,0,0,0,0,0,0,0.1501,0.1499,0.148,0.1479,0.1492,0.1487,0.1485,0.1479,0.1479,0.148,0.1478,0.1478,0.1481,0.1481,0.1482,0.1523,0.1485,0.1485,0.1485,0.153,0.1532,0.1533,0,0,0,0,0,0,0.1502,0.1499,0.148,0.149,0.1488,0.1486,0.1479,0.1478,0.1486,0.1479,0.148,0.1487,0.1481,0.1482,0.1498,0.1521,0.1485,0.1485,0.1529,0.1531,0.1532,0.1576,0,0,0,0,0,0,0.1502,0.1499,0.15,0.149,0.1487,0.1489,0.1478,0.1478,0.1485,0.1485,0.1487,0.1487,0.1481,0.1498,0.1499,0.1521,0.1485,0.1527,0.153,0.1532,0.1573,0.1579,0.1584,0,0,0,0,0,0.1503,0.15,0.15,0.1498,0.1487,0.1489,0.1489,0.1488,0.1485,0.1494,0.1498,0.1487,0.1513,0.1499,0.1499,0.1522,0.1526,0.1529,0.1532,0.1571,0.1578,0.1584,0,0,0,0,0,0,0.1507,0.1499,0.1499,0.1492,0.1498,0.149,0.1495,0.1494,0.1502,0.1506,0.1498,0.1499,0.1526,0.1517,0.1503,0.1544,0.152,0.1522,0.1549,0.1556,0.1562,0.1567,0.1485,0,0,0,0,0,0.1509,0.1508,0.1505,0.1502,0.1505,0.1503,0.1505,0.1507,0.1509,0.1513,0.1514,0.152,0.1535,0.154,0.1549,0.1565,0.1566,0.1582,0.1587,0.1592,0.1598,0.163,0.1639,0.1542,0.1542,0.1542,0,0,0.1511,0.1506,0.1506,0.1504,0.1506,0.1514,0.1505,0.1514,0.1526,0.1513,0.1532,0.1541,0.1545,0.157,0.1581,0.1566,0.1619,0.1595,0.1599,0.1602,0.1634,0.1644,0.1652,0.1544,0.1543,0.1543,0,0,0.1514,0.1509,0.1513,0.1519,0.1527,0.1528,0.1535,0.1537,0.1546,0.1566,0.1566,0.1591,0.16,0.1614,0.162,0.1661,0.165,0.1664,0.1693,0.1725,0.1733,0.174,0.1745,0.1752,0.1663,0.1663,0.1663,0,0.1519,0.1517,0.1517,0.1524,0.1533,0.1537,0.155,0.1558,0.1569,0.1585,0.1581,0.1623,0.1625,0.1663,0.1678,0.1675,0.1681,0.1665,0.1732,0.1739,0.1746,0.1749,0.1757,0.1665,0.1665,0.1665,0.1665,0,0.1523,0.1529,0.1532,0.1544,0.1557,0.1567,0.1581,0.1598,0.1611,0.1625,0.167,0.168,0.1706,0.1714,0.1708,0.1759,0.1743,0.1738,0.1714,0.1758,0.1759,0.1766,0.1669,0.1668,0.1667,0.1667,0,0,0.1515,0.1533,0.1536,0.1546,0.1569,0.1576,0.1607,0.1638,0.1662,0.1687,0.1725,0.1759,0.177,0.1779,0.1781,0.1807,0.1855,0.1793,0.1794,0.1795,0.1911,0.1822,0.1821,0.1864,0.1866,0.1867,0.1888,0,0.1522,0.1536,0.1549,0.1573,0.1584,0.1606,0.1635,0.1667,0.1697,0.1734,0.1765,0.1802,0.1793,0.1812,0.184,0.1854,0.1878,0.1849,0.1869,0.1869,0.1784,0.1828,0.1665,0.1664,0.1895,0.1896,0.1897,0,0.1521,0.1533,0.1555,0.159,0.1598,0.1621,0.1671,0.1697,0.1754,0.1781,0.1827,0.1848,0.1894,0.188,0.193,0.1912,0.1918,0.1925,0.1926,0.1833,0.1794,0.1659,0.1668,0.1909,0.1908,0.1907,0.1906,0,0.1508,0.1537,0.1555,0.1564,0.1604,0.1632,0.1662,0.1718,0.1749,0.1815,0.1846,0.1901,0.1928,0.1959,0.1968,0.1958,0.2013,0.2,0.1925,0.1918,0.1777,0.1754,0.2044,0.2044,0.2044,0.2044,0.2044,0,0.1501,0.1515,0.1551,0.1559,0.1593,0.163,0.1676,0.1715,0.178,0.1811,0.1868,0.1896,0.1952,0.1982,0.199,0.1972,0.2032,0.1937,0.1925,0.1785,0.1764,0.1975,0.1967,0.2044,0.2044,0.2044,0.2044,0,0.1479,0.1499,0.1519,0.1567,0.1584,0.161,0.1676,0.1705,0.1772,0.1815,0.1839,0.1908,0.1935,0.1973,0.2016,0.1983,0.1988,0.1967,0.1784,0.175,0.1864,0.1858,0.1886,0.1883,0.1881,0.1879,0.1877,0,0.1466,0.1473,0.1515,0.1526,0.1549,0.1592,0.1619,0.1694,0.172,0.1803,0.1814,0.1873,0.1875,0.1902,0.1871,0.1862,0.1935,0.1701,0.1653,0.1866,0.1852,0.1849,0.1846,0.1484,0.1479,0.1476,0.1472,0,0.1443,0.1459,0.1477,0.1496,0.1523,0.1543,0.1588,0.1606,0.1676,0.1706,0.1731,0.1748,0.1763,0.1669,0.1662,0.1638,0.1688,0.1619,0.1909,0.1543,0.1487,0.1473,0.1484,0.1438,0.1441,0.1444,0.1446,0.1447,0.1426,0.1428,0.1446,0.1457,0.148,0.1478,0.1469,0.1502,0.1515,0.1526,0.1593,0.1554,0.1559,0.145,0.1396,0.1351,0.1472,0.1402,0.1414,0.1431,0.1374,0.1316,0.1224,0.1226,0.1227,0.1229,0.1231,0,0.139,0.1392,0.1401,0.1397,0.1382,0.1421,0.1426,0.1391,0.1355,0.1378,0.1372,0.1239,0.1158,0.1175,0.104,0.1021,0.1022,0.0981,0.0974,0.1008,0.1039,0.0963,0.0703,0.0702,0.0701,0.0699,0,0,0.137,0.1353,0.1347,0.1295,0.1293,0.1245,0.1229,0.1187,0.1173,0.111,0.1067,0.1127,0.1141,0.0923,0.0877,0.0768,0.089,0.0732,0.1153,0.1181,0.121,0.1275,0.1195,0,0,0,0,0]},{"header":{"parameterUnit":"m.s-1","parameterCategory":2,"la1":30.2991,"la2":30.254,"lo1":-89.0895,"lo2":-89.0444,"dy":0.0017,"dx":0.0017,"nx":28,"ny":28,"refTime":"2025-01-28T03:00:00:Z","depth":"2","parameterNumber":3,"parameterNumberName":"V-component_of_CURRENTS"},"data":[0,0,0,0,0,0,0,0,0,0,0,0,0,0,0,0,0,0,0,0,0,0,0,0,0,0,0,0,0,0,0,0,0,0,0,0,0,0,0,0,0,0,0,0,0,0,0,0,0,0,0,0,0,0,0,0,0,0,0.0081,0.0081,0,0.0081,0.0081,0.0081,0.007,0.0069,0.0069,0.0069,0.0063,0.0063,0.0063,0,0,0,0,0,0,0,0,0,0,0,0,0,0.0075,0.0075,0.0081,0.0081,0.0081,0.0081,0.0081,0.0081,0.007,0.0069,0.0069,0.0069,0.0063,0.0063,0.0063,0,0,0,0,0,0,0,0,0,0,0,0,0,0.0076,0.0075,0.0081,0.0076,0.0075,0.0081,0.0081,0.0081,0.007,0.0069,0.0069,0.0069,0.0063,0.0063,0.0063,0.0073,0,0,0.0064,0.0064,0,0,0,0,0,0,0,0,0.0076,0.0077,0.0077,0.0076,0.0075,0.0075,0.0076,0.0078,0.007,0.0072,0.0069,0.0068,0.0067,0.0067,0.0068,0.0073,0.0073,0.0064,0.0064,0.0064,0.0064,0,0,0,0,0,0,0,0.0076,0.0077,0.0081,0.0077,0.0076,0.0074,0.0074,0.0077,0.0072,0.0072,0.0071,0.0071,0.0066,0.0068,0.0067,0.0073,0.0064,0.0064,0.0064,0.0064,0.0075,0.0075,0,0,0,0,0,0,0.0077,0.0077,0.0081,0.0081,0.0075,0.0074,0.0074,0.0076,0.0072,0.0071,0.0071,0.007,0.0067,0.0067,0.0067,0.0078,0.0064,0.0064,0.0064,0.0075,0.0075,0.0075,0,0,0,0,0,0,0.0076,0.0077,0.0081,0.0079,0.0079,0.0075,0.0077,0.0076,0.0074,0.0072,0.007,0.007,0.0067,0.0067,0.007,0.0077,0.0064,0.0064,0.0075,0.0075,0.0075,0.01,0,0,0,0,0,0,0.0076,0.0077,0.0077,0.0079,0.0079,0.0086,0.0077,0.0076,0.0075,0.0074,0.0071,0.007,0.0067,0.007,0.007,0.0077,0.0065,0.0074,0.0075,0.0075,0.0099,0.0101,0.0103,0,0,0,0,0,0.0076,0.0083,0.0077,0.0078,0.008,0.0086,0.0087,0.0082,0.0075,0.0078,0.0075,0.007,0.0072,0.007,0.0071,0.0078,0.0074,0.0075,0.0075,0.0098,0.01,0.0103,0,0,0,0,0,0,0.0081,0.0082,0.0076,0.0082,0.0083,0.0085,0.0088,0.0083,0.0083,0.008,0.0075,0.0074,0.008,0.0075,0.0073,0.0081,0.0071,0.0072,0.0088,0.0091,0.0093,0.0102,0.0065,0,0,0,0,0,0.0082,0.0085,0.0085,0.0089,0.0091,0.0088,0.0089,0.0086,0.0086,0.0086,0.0083,0.008,0.0083,0.0083,0.0083,0.009,0.0085,0.0093,0.0095,0.0097,0.0104,0.0104,0.0107,0.0077,0.0077,0.0077,0,0,0.0084,0.0085,0.0086,0.009,0.0091,0.0102,0.0088,0.0092,0.0102,0.0086,0.0096,0.0089,0.0086,0.0093,0.0095,0.0089,0.0101,0.0098,0.0099,0.0105,0.0105,0.0108,0.0111,0.0077,0.0077,0.0077,0,0,0.0097,0.0092,0.0102,0.0106,0.0108,0.0109,0.0111,0.0112,0.0111,0.0117,0.011,0.0107,0.0108,0.0109,0.011,0.0123,0.0112,0.0119,0.0138,0.0138,0.014,0.0143,0.0132,0.0134,0.012,0.012,0.012,0,0.01,0.0113,0.0106,0.012,0.0128,0.0115,0.0132,0.0133,0.0134,0.0141,0.0123,0.0129,0.0118,0.0137,0.0134,0.0129,0.0123,0.013,0.0141,0.0143,0.0145,0.0134,0.0135,0.0121,0.0121,0.0121,0.0121,0,0.0125,0.0134,0.0142,0.0156,0.0162,0.0174,0.0176,0.0181,0.0174,0.0175,0.0183,0.0167,0.017,0.0162,0.015,0.0162,0.015,0.0144,0.0137,0.015,0.0137,0.0138,0.0123,0.0122,0.0122,0.0122,0,0,0.0136,0.0156,0.0159,0.0176,0.0183,0.0196,0.0211,0.0228,0.0248,0.0232,0.0254,0.0238,0.0221,0.022,0.0202,0.0196,0.0191,0.0173,0.0173,0.0166,0.0184,0.0165,0.0164,0.0187,0.0188,0.0188,0.0167,0,0.0159,0.0196,0.0197,0.0232,0.0254,0.0251,0.0273,0.0284,0.0283,0.03,0.0279,0.029,0.0246,0.0246,0.023,0.0208,0.0196,0.0197,0.017,0.0169,0.0153,0.0165,0.0173,0.0154,0.0168,0.0168,0.0168,0,0.0187,0.0209,0.0247,0.0284,0.0293,0.0309,0.0345,0.0363,0.0377,0.0377,0.0372,0.0354,0.0341,0.0301,0.0263,0.0265,0.0224,0.0199,0.0198,0.0175,0.0152,0.0144,0.0154,0.0169,0.0169,0.0169,0.0169,0,0.0211,0.0247,0.0281,0.0292,0.0327,0.0345,0.0364,0.0385,0.0416,0.0425,0.0443,0.0417,0.0413,0.0362,0.029,0.028,0.0247,0.0229,0.0174,0.0171,0.017,0.0167,0.0203,0.0203,0.0203,0.0203,0.0203,0,0.0242,0.027,0.0295,0.0316,0.0366,0.0376,0.0427,0.0442,0.0475,0.0519,0.0483,0.0504,0.0428,0.0393,0.0319,0.0248,0.0266,0.0181,0.0169,0.0177,0.0175,0.0184,0.0182,0.0202,0.0202,0.0202,0.0203,0,0.0267,0.028,0.0325,0.0363,0.0379,0.0415,0.0473,0.0514,0.0533,0.0589,0.0596,0.0578,0.053,0.0446,0.0368,0.0293,0.0224,0.0192,0.0198,0.0187,0.0139,0.0139,0.0134,0.0133,0.0133,0.0132,0.0132,0,0.0285,0.0309,0.036,0.0391,0.0408,0.046,0.0503,0.0541,0.0587,0.0634,0.0668,0.0638,0.0618,0.0492,0.0364,0.0241,0.0222,0.0161,0.0142,0.0146,0.0134,0.0135,0.0135,0.0146,0.0145,0.0145,0.0145,0,0.0321,0.0334,0.037,0.0431,0.0477,0.0539,0.0597,0.0643,0.0693,0.073,0.0765,0.0752,0.0637,0.0513,0.0345,0.0259,0.0181,0.0152,0.0169,0.016,0.0155,0.0144,0.0144,0.0143,0.0143,0.0143,0.0143,0.0143,0.0346,0.0376,0.0418,0.0477,0.0533,0.0603,0.0651,0.0712,0.078,0.0828,0.0823,0.079,0.0668,0.0442,0.0309,0.0163,0.017,0.011,0.0111,0.0113,0.0117,0.011,0.009,0.009,0.009,0.009,0.009,0,0.0376,0.0408,0.0463,0.0529,0.0588,0.0615,0.0707,0.0747,0.0812,0.0844,0.0856,0.0721,0.0595,0.0449,0.0236,0.0114,0.0106,0.0068,0.009,0.0093,0.0096,0.0099,0.0067,0.0067,0.0066,0.0066,0,0,0.0394,0.0442,0.0466,0.0557,0.0604,0.0678,0.0727,0.0782,0.0816,0.0829,0.0804,0.078,0.0617,0.0458,0.0303,0.0184,0.0162,0.0154,0.0186,0.0233,0.0237,0.0133,0.0142,0,0,0,0,0]}],[{"header":{"parameterUnit":"m.s-1","parameterCategory":2,"la1":30.2991,"la2":30.254,"lo1":-89.0895,"lo2":-89.0444,"dy":0.0017,"dx":0.0017,"nx":28,"ny":28,"refTime":"2025-01-28T03:00:00:Z","depth":"4","parameterNumber":2,"parameterNumberName":"U-component_of_CURRENTS"},"data":[0,0,0,0,0,0,0,0,0,0,0,0,0,0,0,0,0,0,0,0,0,0,0,0,0,0,0,0,0,0,0,0,0,0,0,0,0,0,0,0,0,0,0,0,0,0,0,0,0,0,0,0,0,0,0,0,0,0,0.082,0.082,0,0.0844,0.0844,0.0844,0.0866,0.0867,0.0867,0.0868,0.0886,0.0886,0.0886,0,0,0,0,0,0,0,0,0,0,0,0,0,0.0768,0.0769,0.082,0.082,0.0821,0.0844,0.0844,0.0844,0.0866,0.0867,0.0868,0.0868,0.0886,0.0886,0.0886,0,0,0,0,0,0,0,0,0,0,0,0,0,0.0789,0.0769,0.082,0.0836,0.0838,0.0844,0.0844,0.0844,0.0866,0.0867,0.0868,0.0868,0.0886,0.0886,0.0886,0.0872,0,0,0.0887,0.0887,0,0,0,0,0,0,0,0,0.0788,0.0791,0.0834,0.0835,0.0838,0.0855,0.0832,0.0854,0.0866,0.0853,0.0868,0.0869,0.0876,0.0877,0.0877,0.0873,0.0874,0.0887,0.0887,0.0887,0.0887,0,0,0,0,0,0,0,0.0787,0.079,0.0827,0.0834,0.0836,0.0834,0.0838,0.0836,0.0859,0.0855,0.0857,0.0863,0.0877,0.0877,0.0878,0.0874,0.0887,0.0887,0.0887,0.0887,0.0929,0.093,0,0,0,0,0,0,0.0789,0.0789,0.0826,0.0828,0.0816,0.0835,0.0839,0.0847,0.0859,0.0862,0.0862,0.0864,0.0876,0.0877,0.0878,0.092,0.0887,0.0887,0.0887,0.0928,0.0929,0.093,0,0,0,0,0,0,0.0787,0.0792,0.0826,0.081,0.0815,0.0835,0.0844,0.0847,0.0868,0.0865,0.0868,0.0883,0.0877,0.0878,0.0897,0.0919,0.0887,0.0887,0.0927,0.0928,0.093,0.0967,0,0,0,0,0,0,0.0786,0.0791,0.0806,0.0811,0.0816,0.0842,0.0843,0.0847,0.087,0.0873,0.0883,0.0884,0.0878,0.0897,0.0897,0.0919,0.0887,0.0925,0.0927,0.0929,0.0964,0.097,0.0974,0,0,0,0,0,0.0784,0.0797,0.0806,0.0811,0.0832,0.0843,0.0846,0.086,0.0871,0.0882,0.0892,0.0885,0.091,0.0898,0.0898,0.092,0.0924,0.0927,0.0929,0.0962,0.0969,0.0974,0,0,0,0,0,0,0.0781,0.08,0.0811,0.083,0.0844,0.0848,0.0863,0.0872,0.0888,0.0898,0.0894,0.0895,0.0922,0.0916,0.0902,0.0939,0.0918,0.0921,0.0944,0.095,0.0954,0.0956,0.0887,0,0,0,0,0,0.0787,0.0805,0.0819,0.0836,0.0846,0.0859,0.0869,0.088,0.0891,0.09,0.0908,0.0918,0.0927,0.0935,0.094,0.0956,0.0957,0.0973,0.0978,0.0982,0.0985,0.1014,0.1022,0.0938,0.0938,0.0938,0,0,0.0791,0.0805,0.0815,0.0838,0.0851,0.0863,0.0867,0.089,0.0904,0.0898,0.0926,0.0935,0.0936,0.0957,0.0968,0.0957,0.1006,0.0985,0.0989,0.0989,0.1018,0.1026,0.1033,0.094,0.094,0.0939,0,0,0.0799,0.0821,0.0837,0.0849,0.0875,0.0881,0.0893,0.0911,0.0928,0.095,0.0954,0.0978,0.099,0.0996,0.0999,0.1034,0.1031,0.1043,0.1068,0.1097,0.1105,0.1111,0.1117,0.1123,0.1045,0.1045,0.1045,0,0.0806,0.0823,0.0843,0.0857,0.087,0.0891,0.0905,0.092,0.0944,0.0962,0.0967,0.1006,0.1007,0.1032,0.1047,0.1045,0.1057,0.1044,0.1104,0.111,0.1116,0.1121,0.1127,0.1047,0.1047,0.1047,0.1047,0,0.0816,0.0837,0.0847,0.0873,0.0889,0.0906,0.0927,0.0953,0.0978,0.0994,0.1038,0.1047,0.1071,0.1078,0.1072,0.1117,0.111,0.1106,0.1087,0.1126,0.1129,0.1135,0.105,0.1049,0.1049,0.1048,0,0,0.0813,0.0848,0.0854,0.0866,0.0899,0.091,0.0943,0.0975,0.1003,0.1037,0.1075,0.1099,0.112,0.1125,0.1131,0.1155,0.1201,0.1153,0.1154,0.1156,0.1259,0.1151,0.1147,0.1216,0.1218,0.1219,0.1242,0,0.0817,0.0842,0.0861,0.0885,0.0897,0.0928,0.0954,0.0989,0.1025,0.1067,0.1098,0.1135,0.1133,0.1157,0.1183,0.1201,0.1221,0.1194,0.1223,0.1223,0.112,0.1152,0.1224,0.1247,0.1248,0.1249,0.125,0,0.0817,0.0834,0.0859,0.0891,0.0901,0.0922,0.0973,0.1,0.1062,0.1094,0.1145,0.1172,0.122,0.1212,0.1266,0.1255,0.1261,0.1268,0.1269,0.1159,0.1127,0.1201,0.1261,0.126,0.1259,0.1258,0.1258,0,0.0794,0.083,0.085,0.0861,0.0902,0.0929,0.0958,0.1016,0.1051,0.1122,0.1162,0.1216,0.1258,0.1285,0.1303,0.1298,0.1351,0.1342,0.1245,0.1237,0.1311,0.1305,0.1374,0.1374,0.1374,0.1374,0.1374,0,0.0778,0.0795,0.0845,0.0854,0.0887,0.0923,0.097,0.101,0.1078,0.112,0.1181,0.122,0.1285,0.132,0.1323,0.1299,0.137,0.125,0.1239,0.1325,0.132,0.1315,0.1308,0.1375,0.1375,0.1375,0.1375,0,0.0746,0.0778,0.0804,0.0856,0.0877,0.0904,0.0976,0.1007,0.1079,0.114,0.1169,0.1248,0.1287,0.1321,0.1362,0.1314,0.1305,0.1275,0.1358,0.1351,0.1165,0.116,0.117,0.1166,0.1163,0.1161,0.1159,0,0.0729,0.0741,0.0803,0.0823,0.0852,0.09,0.0932,0.1004,0.1037,0.1141,0.1161,0.1233,0.1271,0.1241,0.1279,0.1264,0.1245,0.1225,0.1197,0.1157,0.1147,0.1146,0.1145,0.1154,0.1153,0.1152,0.1152,0,0.0697,0.073,0.0754,0.0797,0.0834,0.0867,0.0918,0.0937,0.1017,0.1095,0.1125,0.1139,0.1171,0.1182,0.1176,0.1165,0.1231,0.1193,0.1199,0.1173,0.1138,0.113,0.1132,0.1141,0.1143,0.1144,0.1144,0,0.0681,0.0691,0.073,0.076,0.0803,0.0817,0.0849,0.0881,0.0922,0.103,0.1037,0.1102,0.1169,0.113,0.1127,0.1103,0.108,0.1033,0.1047,0.1059,0.1008,0.0947,0.0883,0,0,0,0,0,0.0661,0.0663,0.0687,0.071,0.075,0.0774,0.083,0.0863,0.0943,0.0936,0.0983,0.1003,0.1001,0.103,0.098,0.1063,0.1079,0.0997,0.1032,0.1083,0.1095,0.1042,0,0,0,0,0,0,0.0646,0.0668,0.0668,0.0663,0.0672,0.0703,0.0737,0.0789,0.0784,0.0871,0.0876,0.0933,0.0946,0.1024,0.0962,0.0967,0.0962,0.1033,0.1029,0.1076,0.1087,0.1097,0.1047,0,0,0,0,0]},{"header":{"parameterUnit":"m.s-1","parameterCategory":2,"la1":30.2991,"la2":30.254,"lo1":-89.0895,"lo2":-89.0444,"dy":0.0017,"dx":0.0017,"nx":28,"ny":28,"refTime":"2025-01-28T03:00:00:Z","depth":"4","parameterNumber":3,"parameterNumberName":"V-component_of_CURRENTS"},"data":[0,0,0,0,0,0,0,0,0,0,0,0,0,0,0,0,0,0,0,0,0,0,0,0,0,0,0,0,0,0,0,0,0,0,0,0,0,0,0,0,0,0,0,0,0,0,0,0,0,0,0,0,0,0,0,0,0,0,0.0142,0.0142,0,0.0142,0.0142,0.0142,0.0141,0.0141,0.0141,0.0141,0.0158,0.0159,0.0159,0,0,0,0,0,0,0,0,0,0,0,0,0,0.0144,0.0144,0.0142,0.0142,0.0142,0.0142,0.0142,0.0142,0.0141,0.0141,0.0141,0.0141,0.0158,0.0159,0.0159,0,0,0,0,0,0,0,0,0,0,0,0,0,0.0144,0.0144,0.0142,0.0141,0.0141,0.0142,0.0142,0.0142,0.0141,0.0141,0.0141,0.0141,0.0158,0.0159,0.0159,0.0167,0,0,0.0162,0.0162,0,0,0,0,0,0,0,0,0.0144,0.0144,0.0141,0.0141,0.0141,0.0141,0.0149,0.0151,0.0141,0.0142,0.0141,0.0141,0.0154,0.0155,0.0156,0.0168,0.0169,0.0162,0.0163,0.0163,0.0163,0,0,0,0,0,0,0,0.0144,0.0144,0.0143,0.0141,0.0141,0.0142,0.0142,0.015,0.0149,0.0141,0.0141,0.014,0.0154,0.0155,0.0156,0.0169,0.0162,0.0163,0.0163,0.0164,0.0194,0.0194,0,0,0,0,0,0,0.0143,0.0144,0.0143,0.0143,0.0142,0.0142,0.0142,0.0142,0.0149,0.0149,0.0141,0.014,0.0154,0.0155,0.0157,0.0179,0.0163,0.0164,0.0164,0.0193,0.0194,0.0194,0,0,0,0,0,0,0.0143,0.0143,0.0143,0.0143,0.0143,0.0142,0.0142,0.0142,0.0144,0.0148,0.0149,0.0143,0.0154,0.0156,0.0169,0.0179,0.0164,0.0165,0.0193,0.0194,0.0194,0.0215,0,0,0,0,0,0,0.0143,0.0143,0.0144,0.0143,0.0143,0.0147,0.0142,0.0142,0.0143,0.0143,0.015,0.0152,0.0154,0.0167,0.0169,0.018,0.0165,0.0193,0.0193,0.0194,0.0214,0.0216,0.0218,0,0,0,0,0,0.0143,0.0147,0.0144,0.0144,0.0144,0.0147,0.0148,0.0147,0.0143,0.0148,0.0153,0.0151,0.0172,0.0169,0.0171,0.0182,0.0192,0.0193,0.0194,0.0213,0.0215,0.0218,0,0,0,0,0,0,0.0149,0.0147,0.0144,0.0147,0.0147,0.0147,0.015,0.0148,0.0155,0.0156,0.0158,0.016,0.0175,0.0174,0.017,0.0191,0.0181,0.0182,0.0195,0.0197,0.0199,0.0203,0.0166,0,0,0,0,0,0.015,0.0152,0.015,0.0152,0.0153,0.0152,0.0153,0.0153,0.0157,0.0159,0.0164,0.017,0.0179,0.0185,0.0192,0.0205,0.0191,0.0212,0.0214,0.0216,0.022,0.0208,0.021,0.0196,0.0196,0.0196,0,0,0.0153,0.0152,0.0153,0.0154,0.0154,0.0163,0.0153,0.0157,0.0168,0.0161,0.0179,0.0179,0.0184,0.0199,0.0205,0.0201,0.021,0.0217,0.0219,0.0221,0.0209,0.021,0.0212,0.0197,0.0197,0.0197,0,0,0.0162,0.0158,0.0165,0.0169,0.0171,0.0172,0.0174,0.0176,0.018,0.0194,0.0192,0.0198,0.0212,0.0217,0.0222,0.0239,0.0221,0.024,0.0255,0.0243,0.0244,0.0245,0.0218,0.0216,0.0241,0.0241,0.0241,0,0.0165,0.0174,0.0168,0.0178,0.0186,0.0177,0.0192,0.0196,0.0203,0.0211,0.0203,0.022,0.0222,0.0241,0.0245,0.0245,0.0228,0.0246,0.0246,0.0246,0.0247,0.0218,0.0216,0.0242,0.0242,0.0242,0.0242,0,0.0182,0.0191,0.0196,0.0207,0.0215,0.0226,0.023,0.0238,0.024,0.0243,0.0258,0.0254,0.0264,0.0264,0.0261,0.0268,0.0251,0.0249,0.0239,0.0249,0.0219,0.0216,0.0243,0.0243,0.0243,0.0242,0,0,0.0187,0.0205,0.0208,0.0223,0.0233,0.0244,0.0262,0.0279,0.0293,0.0292,0.0307,0.0314,0.0303,0.0307,0.0299,0.0288,0.027,0.027,0.0269,0.0242,0.023,0.0209,0.0204,0.0266,0.0266,0.0266,0.0203,0,0.0203,0.0231,0.0236,0.0268,0.0284,0.0289,0.0309,0.0322,0.0327,0.0337,0.0329,0.034,0.0323,0.0324,0.0311,0.0285,0.0265,0.0286,0.0225,0.0223,0.0203,0.0201,0.0266,0.0201,0.02,0.02,0.02,0,0.022,0.0238,0.0271,0.0305,0.0313,0.0332,0.0363,0.038,0.039,0.0392,0.0392,0.0379,0.0369,0.0348,0.0302,0.0315,0.0274,0.0246,0.0243,0.0217,0.0198,0.0192,0.0194,0.0195,0.0195,0.0195,0.0196,0,0.0231,0.0265,0.0295,0.0306,0.0339,0.036,0.038,0.0399,0.0419,0.0424,0.0429,0.0411,0.0401,0.0356,0.0293,0.0297,0.0229,0.0229,0.0169,0.0166,0.0194,0.0194,0.0191,0.0191,0.0191,0.0191,0.0191,0,0.0248,0.0273,0.0304,0.0321,0.0363,0.0381,0.0422,0.0436,0.0456,0.0477,0.0457,0.0455,0.0402,0.0355,0.0297,0.0219,0.023,0.0169,0.0152,0.0202,0.0204,0.0191,0.0192,0.0189,0.0189,0.019,0.019,0,0.0255,0.0274,0.0312,0.0353,0.037,0.0401,0.0451,0.0476,0.049,0.0513,0.0514,0.0487,0.0426,0.0357,0.0275,0.0225,0.0154,0.0121,0.0166,0.0154,0.0095,0.0098,0.0054,0.0053,0.0052,0.0051,0.005,0,0.0261,0.0281,0.0332,0.0357,0.0379,0.0425,0.0458,0.0491,0.0515,0.0528,0.0534,0.0487,0.0455,0.032,0.025,0.0131,0.0116,0.0073,0.0098,0.0095,0.0083,0.0087,0.0091,0.0049,0.0048,0.0048,0.0048,0,0.0271,0.0289,0.0319,0.037,0.0409,0.0455,0.05,0.0518,0.055,0.0563,0.0542,0.048,0.0406,0.0312,0.0215,0.0134,0.0102,0.0063,0.0065,0.0088,0.0088,0.0078,0.0083,0.0044,0.0045,0.0045,0.0045,0,0.0277,0.0296,0.0333,0.0379,0.0428,0.0468,0.0495,0.0519,0.0544,0.0555,0.0544,0.0473,0.0438,0.0312,0.0225,0.0141,0.0126,0.0102,0.0102,0.0104,0.0141,0.015,0.0109,0,0,0,0,0,0.0281,0.0301,0.034,0.0387,0.0434,0.0464,0.0516,0.0537,0.0563,0.0548,0.0549,0.0479,0.0357,0.0308,0.022,0.0205,0.0108,0.0098,0.008,0.0025,0.0029,0.0062,0,0,0,0,0,0,0.0281,0.0315,0.0334,0.0384,0.0415,0.0468,0.0501,0.0521,0.0514,0.0526,0.0462,0.0447,0.0328,0.0401,0.0213,0.019,0.0164,0.0047,0.0045,0.0023,0.0026,0.003,0.0065,0,0,0,0,0]}]]